Location: Colorado Springs
(38.8340°N, 104.8210°W)
Time: 12:54:15
(UTC-06:00)

OTV 5 (USA 277) - Pass Details

Date: 10 October 2017
Orbit: 404 x 417 km, 43.0° (Epoch: 07 September)

Event Time Altitude Azimuth Distance (km) Brightness Sun altitude
Rises 20:51:20 0° 266° (W) 2,350 ? -28.6°
Reaches altitude 10° 20:53:29 10° 272° (W) 1,488 ? -29.0°
Enters shadow 20:54:23 17° 277° (W) 1,144 ? -29.2°
